Location: Sauerland
(51.1981°N, 7.8053°E)
Time: 15:26:56
(UTC+01:00)

ISS - Pass Details

Date: 26 February 2026
Orbit: 416 x 427 km, 51.6° (Epoch: 5 March)

Event Time Altitude Azimuth Distance (km) Brightness Sun altitude
Exits shadow 06:40:04 - 279° (W) 1,551 -1.6 -7.0°
Reaches altitude 10° 06:40:12 10° 279° (W) 1,497 -1.6 -7.0°
Maximum altitude 06:43:26 46° 205° (SSW) 573 -3.2 -6.5°
Drops below altitude 10° 06:46:39 10° 131° (SE) 1,488 0.0 -6.0°
Sets 06:48:46 0° 125° (SE) 2,348 1.3 -5.7°
